M.P.E.C. 2019-M105 Issued 2019 June 29, 00:18 UT The Minor Planet Electronic Circulars contain information on unusual minor planets and routine data on comets. They are published on behalf of Division F of the International Astronomical Union by the Minor Planet Center, Smithsonian Astrophysical Observatory, Cambridge, MA 02138, U.S.A. Prepared using the Tamkin Foundation Computer Network MPC@CFA.HARVARD.EDU URL https://www.minorplanetcenter.net/ ISSN 1523-6714 2019 CJ3 Additional Observations: K19C03J C2012 03 20.25504 06 31 35.953-04 07 25.55 20.9 GVEM105F51 K19C03J C2012 03 20.26639 06 31 35.981-04 07 24.30 21.1 GVEM105F51 K19C03J C2012 12 23.49402 07 03 55.934-03 43 37.72 20.8 GVEM105F51 K19C03J C2012 12 23.50756 07 03 55.782-03 43 37.37 20.8 GVEM105F51 K19C03J C2012 12 24.44537 07 03 45.450-03 43 12.65 21.1 GVEM105F51 K19C03J C2013 03 05.28658 06 53 08.191-02 07 56.41 20.9 GVEM105F51 K19C03J C2013 03 05.29808 06 53 08.151-02 07 55.06 20.5 GVEM105F51 K19C03J C2013 03 30.29414 06 52 57.619-01 19 50.95 20.7 GVEM105F51 K19C03J C2013 03 30.30670 06 52 57.580-01 19 49.86 21.0 GVEM105F51 K19C03J C2013 10 31.65431 07 31 39.136-00 55 37.65 20.7 GVEM105F51 K19C03J C2013 11 01.64379 07 31 38.169-00 56 21.73 20.7 GVEM105F51 K19C03J C2013 12 03.60762 07 29 08.818-01 10 18.37 21.0 GVEM105F51 K19C03J C2013 12 03.61471 07 29 08.758-01 10 18.42 20.6 GVEM105F51 K19C03J C2013 12 23.49457 07 26 02.594-01 06 40.95 21.2 GVEM105F51 K19C03J C2013 12 23.50784 07 26 02.448-01 06 40.46 21.0 GVEM105F51 K19C03J C2014 01 20.39168 07 20 51.715-00 43 33.60 20.6 GVEM105F51 K19C03J C2014 01 20.40428 07 20 51.576-00 43 32.70 20.7 GVEM105F51 K19C03J C2014 02 23.33258 07 15 38.550+00 07 30.55 20.8 GVEM105F51 K19C03J C2014 02 23.33322 07 15 38.556+00 07 30.57 21.1 GVEM105F51 K19C03J C2014 02 23.34644 07 15 38.470+00 07 31.93 20.7 GVEM105F51 K19C03J C2015 10 03.60911 08 11 36.096+04 20 24.27 21.6 GVEM105F51 K19C03J C2015 10 03.61735 08 11 36.169+04 20 23.71 21.3 GVEM105F51 K19C03J C2015 10 28.59227 08 13 47.031+04 04 32.75 21.0 GVEM105F51 K19C03J C2015 10 28.60263 08 13 47.055+04 04 32.61 20.9 GVEM105F51 K19C03J C2015 10 28.61303 08 13 47.064+04 04 32.14 20.9 GVEM105F51 K19C03J C2015 10 28.62341 08 13 47.097+04 04 31.84 21.1 GVEM105F51 K19C03J C2015 12 05.50438 08 12 31.305+03 57 11.44 20.8 GVEM105F51 K19C03J C2015 12 05.51780 08 12 31.212+03 57 11.51 21.0 GVEM105F51 K19C03J C2015 12 05.53136 08 12 31.123+03 57 11.58 21.0 GVEM105F51 K19C03J C2015 12 05.54476 08 12 31.049+03 57 11.81 21.0 GVEM105F51 K19C03J C2015 12 06.50577 08 12 25.022+03 57 22.82 21.1 GVEM105F51 K19C03J C2015 12 06.50792 08 12 25.002+03 57 22.83 21.0 GVEM105F51 K19C03J C2015 12 06.51697 08 12 24.944+03 57 22.94 21.3 GVEM105F51 K19C03J C2015 12 06.51907 08 12 24.933+03 57 22.94 21.1 GVEM105F51 K19C03J C2015 12 06.52819 08 12 24.872+03 57 23.06 21.0 GVEM105F51 K19C03J C2015 12 06.53017 08 12 24.858+03 57 23.05 20.8 GVEM105F51 K19C03J C2015 12 06.53953 08 12 24.800+03 57 23.23 21.0 GVEM105F51 K19C03J C2015 12 06.54151 08 12 24.783+03 57 23.25 21.0 GVEM105F51 K19C03J C2016 01 10.53454 08 07 07.179+04 18 20.75 20.8 GVEM105F51 K19C03J C2016 01 10.54802 08 07 07.031+04 18 21.53 20.7 GVEM105F51 K19C03J C2016 01 10.56147 08 07 06.884+04 18 22.28 20.7 GVEM105F51 K19C03J C2016 01 10.57495 08 07 06.729+04 18 23.06 20.9 GVEM105F51 K19C03J C2016 01 12.37958 08 06 46.957+04 20 11.86 20.6 GVEM105F51 K19C03J C2016 01 12.39018 08 06 46.833+04 20 12.55 20.6 GVEM105F51 K19C03J C2016 01 12.39211 08 06 46.818+04 20 12.66 20.6 GVEM105F51 K19C03J C2016 01 12.40271 08 06 46.694+04 20 13.30 20.6 GVEM105F51 K19C03J C2016 01 12.40465 08 06 46.674+04 20 13.46 20.6 GVEM105F51 K19C03J C2016 01 12.41523 08 06 46.557+04 20 14.05 20.7 GVEM105F51 K19C03J C2016 01 12.41718 08 06 46.533+04 20 14.17 20.8 GVEM105F51 K19C03J C2016 01 12.42795 08 06 46.408+04 20 14.85 20.7 GVEM105F51 K19C03J C2016 01 19.38281 08 05 29.090+04 27 50.16 20.9 GVEM105F51 K19C03J C2016 01 19.39530 08 05 28.942+04 27 51.11 20.6 GVEM105F51 K19C03J C2016 01 19.40775 08 05 28.798+04 27 51.97 20.8 GVEM105F51 K19C03J C2016 01 19.42022 08 05 28.655+04 27 52.84 21.0 GVEM105F51 K19C03J C2016 01 28.37576 08 03 49.006+04 38 56.08 20.4 GVEM105F51 K19C03J C2016 01 28.39839 08 03 48.759+04 38 57.72 20.4 GVEM105F51 K19C03J C2016 01 28.40997 08 03 48.621+04 38 58.65 20.8 GVEM105F51 K19C03J C2016 02 09.38473 08 01 41.076+04 55 37.29 20.9 GVEM105F51 K19C03J C2016 02 09.39600 08 01 40.964+04 55 38.27 20.8 GVEM105F51 K19C03J C2016 02 09.40725 08 01 40.844+04 55 39.38 21.0 GVEM105F51 K19C03J C2016 02 09.41860 08 01 40.727+04 55 40.34 20.8 GVEM105F51 K19C03J C2016 02 10.32999 08 01 31.519+04 57 00.70 20.9 GVEM105F51 K19C03J C2016 02 10.34201 08 01 31.399+04 57 01.72 20.9 GVEM105F51 K19C03J C2016 02 10.35392 08 01 31.280+04 57 02.67 20.8 GVEM105F51 K19C03J C2016 02 10.36591 08 01 31.153+04 57 03.73 20.8 GVEM105F51 K19C03J C2016 02 26.32120 07 59 06.962+05 21 34.91 21.4 GVEM105F51 K19C03J C2016 02 26.33546 07 59 06.855+05 21 36.08 21.8 GVEM105F51 K19C03J C2016 02 26.34981 07 59 06.737+05 21 36.98 21.1 GVEM105F51 K19C03J C2016 02 26.36374 07 59 06.594+05 21 38.79 21.3 GVEM105F51 K19C03J C2016 03 05.30119 07 58 09.971+05 34 15.99 20.8 GVEM105F51 K19C03J C2016 03 05.31362 07 58 09.891+05 34 17.22 20.7 GVEM105F51 K19C03J C2016 03 05.32569 07 58 09.813+05 34 18.43 20.8 GVEM105F51 K19C03J C2016 03 05.33781 07 58 09.730+05 34 19.55 20.7 GVEM105F51 K19C03J C2016 03 08.23901 07 57 52.038+05 38 57.24 21.4 GVEM105F51 K19C03J C2016 03 08.25262 07 57 51.953+05 38 58.45 21.2 GVEM105F51 K19C03J C2016 03 08.26618 07 57 51.866+05 38 59.85 21.0 GVEM105F51 K19C03J C2016 03 08.27983 07 57 51.778+05 39 00.93 21.0 GVEM105F51 K19C03J C2016 10 27.61435 08 34 40.650+06 27 09.71 21.2 GVEM105F51 K19C03J C2016 10 27.62104 08 34 40.669+06 27 09.59 21.1 GVEM105F51 K19C03J C2016 10 27.62715 08 34 40.693+06 27 09.54 21.1 GVEM105F51 K19C03J C2016 10 27.63388 08 34 40.712+06 27 09.28 21.3 GVEM105F51 K19C03J C2016 11 12.60140 08 35 09.464+06 23 03.40 21.2 GVEM105F51 K19C03J C2016 11 12.61343 08 35 09.464+06 23 03.38 21.2 GVEM105F51 K19C03J C2016 12 23.55832 08 32 02.059+06 34 29.77 20.9 GVEM105F51 K19C03J C2016 12 23.57159 08 32 01.945+06 34 30.39 20.8 GVEM105F51 K19C03J C2016 12 23.58485 08 32 01.824+06 34 30.96 20.9 GVEM105F51 K19C03J C2016 12 23.59817 08 32 01.713+06 34 31.53 20.8 GVEM105F51 K19C03J C2017 01 04.42780 08 30 11.410+06 44 20.16 20.7 GVEM105F51 K19C03J C2017 01 04.44074 08 30 11.276+06 44 21.00 20.8 GVEM105F51 K19C03J C2017 01 04.45370 08 30 11.146+06 44 21.72 20.8 GVEM105F51 K19C03J C2017 01 04.46669 08 30 11.014+06 44 22.46 20.9 GVEM105F51 K19C03J C2017 01 20.48700 08 27 20.623+07 01 50.65 20.8 GVEM105F51 K19C03J C2017 01 20.48764 08 27 20.616+07 01 50.73 20.9 GVEM105F51 K19C03J C2017 02 02.39757 08 24 58.143+07 18 44.90 21.0 GVEM105F51 K19C03J C2017 02 02.41114 08 24 57.994+07 18 45.99 20.6 GVEM105F51 K19C03J C2017 02 02.42474 08 24 57.842+07 18 47.11 20.7 GVEM105F51 K19C03J C2017 02 02.43850 08 24 57.691+07 18 48.23 20.8 GVEM105F51 K19C03J C2017 03 16.25659 08 18 57.314+08 20 48.48 21.1 GVEM105F51 K19C03J C2017 03 16.27052 08 18 57.238+08 20 49.77 21.1 GVEM105F51 K19C03J C2017 03 16.28441 08 18 57.168+08 20 50.95 21.3 GVEM105F51 K19C03J C2017 04 09.29686 08 17 55.423+08 53 27.10 21.0 GVEM105F51 K19C03J C2017 04 09.30667 08 17 55.444+08 53 27.90 21.2 GVEM105F51 K19C03J C2017 04 09.31647 08 17 55.421+08 53 28.42 20.6 GVEM105F51 K19C03J C2017 04 11.30002 08 17 56.261+08 55 52.59 21.2 GVEM105F51 K19C03J C2017 04 11.31376 08 17 56.271+08 55 53.71 21.7 GVEM105F51 K19C03J C2017 04 11.32748 08 17 56.257+08 55 54.27 20.9 GVEM105F51 K19C03J C2017 04 11.36091 08 17 56.303+08 55 57.28 21.0 GVEM105F51 K19C03J C2017 11 22.55299 08 56 17.242+08 42 23.97 20.9 GVEM105F51 K19C03J C2017 11 22.56379 08 56 17.225+08 42 24.10 21.1 GVEM105F51 K19C03J C2017 11 22.57465 08 56 17.214+08 42 24.20 21.2 GVEM105F51 K19C03J C2017 11 22.58547 08 56 17.206+08 42 24.44 21.4 GVEM105F51 K19C03J C2018 01 12.55343 08 50 58.255+09 17 50.89 20.7 GVEM105F51 K19C03J C2018 01 12.56682 08 50 58.122+09 17 52.02 20.9 GVEM105F51 K19C03J C2018 01 12.58023 08 50 57.981+09 17 52.91 21.0 GVEM105F51 K19C03J C2018 01 12.59373 08 50 57.846+09 17 53.93 21.1 GVEM105F51 K19C03J C2018 01 20.50735 08 49 34.855+09 27 32.90 21.1 GVEM105F51 K19C03J C2018 01 20.51959 08 49 34.720+09 27 33.82 21.0 GVEM105F51 K19C03J C2018 01 20.53186 08 49 34.589+09 27 34.78 21.0 GVEM105F51 K19C03J C2018 01 20.54413 08 49 34.454+09 27 35.73 21.0 GVEM105F51 K19C03J C2018 02 18.29884 08 44 25.753+10 07 49.64 20.8 GVEM105F51 K19C03J C2018 02 18.32154 08 44 25.516+10 07 51.77 21.0 GVEM105F51 Observer details: F51 Pan-STARRS 1, Haleakala. Observers J. Bulger, K. Chambers, B. Gibson, T. Goggia, T. Lowe, E. Magnier, N. Primak, A. Schultz, J. Thiel, S. Watters, M. Willman. Measurers S. Chastel, M. Huber, R. Jedicke, R. Wainscoat, R. Weryk. 1.8-m Ritchey-Chretien + CCD. Orbital elements: 2019 CJ3 Epoch 2019 Apr. 27.0 TT = JDT 2458600.5 MPC M 18.35333 (2000.0) P Q n 0.00978995 Peri. 325.97341 -0.36821088 -0.83714545 a 21.6412565 Node 140.67944 +0.92964098 -0.33792570 e 0.2235927 Incl. 39.66763 +0.01372564 +0.43010896 P 100.68 H 8.8 G 0.15 U 0 Residuals in seconds of arc 120320 F51 0.1- 0.0 160112 F51 0.0 0.0 170202 F51 0.0 0.0 120320 F51 0.1+ 0.1- 160112 F51 0.1- 0.0 170316 F51 0.0 0.0 121223 F51 0.1+ 0.0 160119 F51 0.1+ 0.1- 170316 F51 0.0 0.1+ 121223 F51 0.1+ 0.0 160119 F51 0.0 0.0 170316 F51 0.1+ 0.0 121224 F51 0.2+ 0.1+ 160119 F51 0.0 0.0 170409 F51 0.3- 0.1+ 130305 F51 0.1+ 0.1- 160119 F51 0.0 0.0 170409 F51 0.1+ 0.2+ 130305 F51 0.1+ 0.1- 160128 F51 0.0 0.1+ 170409 F51 0.3- 0.0 130330 F51 0.2+ 0.2+ 160128 F51 0.1+ 0.1- 170411 F51 0.1- 0.1- 130330 F51 0.9- 0.1- 160128 F51 0.0 0.0 170411 F51 0.0 0.1+ 131031 F51 0.2- 0.0 160209 F51 0.0 0.1- 170411 F51 0.3- 0.4- 131101 F51 0.0 0.0 160209 F51 0.1+ 0.1- 170411 F51 0.1+ 0.2+ 131203 F51 0.1+ 0.1- 160209 F51 0.0 0.1+ 171122 F51 0.0 0.0 131203 F51 0.0 0.1- 160209 F51 0.0 0.0 171122 F51 0.1- 0.0 131223 F51 0.1- 0.0 160210 F51 0.1- 0.1+ 171122 F51 0.0 0.0 131223 F51 0.1- 0.1+ 160210 F51 0.0 0.0 171122 F51 0.0 0.1+ 140120 F51 0.0 0.0 160210 F51 0.1+ 0.1- 180112 F51 0.1- 0.2- 140120 F51 0.1+ 0.0 160210 F51 0.0 0.1- 180112 F51 0.0 0.0 140223 F51 0.1- 0.0 160226 F51 0.2+ 0.3+ 180112 F51 0.0 0.0 140223 F51 0.1+ 0.0 160226 F51 0.3+ 0.1+ 180112 F51 0.0 0.0 140223 F51 0.2+ 0.1- 160226 F51 0.3+ 0.3- 180120 F51 0.0 0.0 151003 F51 0.2- 0.1+ 160226 F51 0.2- 0.1+ 180120 F51 0.0 0.0 151003 F51 0.1- 0.1- 160305 F51 0.0 0.1- 180120 F51 0.0 0.0 151028 F51 0.1+ 0.0 160305 F51 0.0 0.0 180120 F51 0.0 0.0 151028 F51 0.1+ 0.2+ 160305 F51 0.1+ 0.0 180218 F51 0.1+ 0.1- 151028 F51 0.1- 0.0 160305 F51 0.0 0.0 180218 F51 0.0 0.1+ 151028 F51 0.1+ 0.0 160308 F51 0.1+ 0.1+ 190103 F51 0.0 0.1- 151205 F51 0.1+ 0.1+ 160308 F51 0.0 0.0 190103 F51 0.0 0.0 151205 F51 0.1- 0.0 160308 F51 0.0 0.1+ 190103 F51 0.1+ 0.0 151205 F51 0.1- 0.1- 160308 F51 0.1- 0.1- 190103 F51 0.1+ 0.0 151205 F51 0.1+ 0.0 161027 F51 0.0 0.0 190110 F51 0.0 0.1- 151206 F51 0.0 0.0 161027 F51 0.0 0.0 190110 F51 0.0 0.0 151206 F51 0.1- 0.0 161027 F51 0.0 0.1+ 190110 F51 0.0 0.0 151206 F51 0.0 0.0 161027 F51 0.1- 0.0 190110 F51 0.0 0.0 151206 F51 0.0 0.0 161112 F51 0.1- 0.1- 190205 F52 0.1+ 0.2- 151206 F51 0.0 0.0 161112 F51 0.1- 0.0 190205 F52 0.0 0.1- 151206 F51 0.0 0.1- 161223 F51 0.0 0.1- 190205 F52 0.1+ 0.0 151206 F51 0.0 0.0 161223 F51 0.0 0.0 190208 I41 0.0 0.1- 151206 F51 0.0 0.0 161223 F51 0.1- 0.0 190208 I41 0.0 0.1+ 160110 F51 0.0 0.0 161223 F51 0.0 0.0 190208 I41 0.2- 0.2- 160110 F51 0.0 0.0 170104 F51 0.0 0.1- 190208 I41 0.0 0.0 160110 F51 0.1+ 0.0 170104 F51 0.0 0.0 190208 I41 0.2+ 0.1+ 160110 F51 0.0 0.0 170104 F51 0.0 0.0 190211 I52 0.3+ 0.5- 160112 F51 0.0 0.0 170104 F51 0.0 0.0 190211 I52 0.3+ 0.0 160112 F51 0.1- 0.0 170120 F51 0.0 0.0 190211 I52 0.3+ 0.0 160112 F51 0.0 0.0 170120 F51 0.0 0.0 190405 G37 0.1- 0.0 160112 F51 0.0 0.0 170202 F51 0.0 0.1+ 190405 G37 0.1- 0.0 160112 F51 0.0 0.1+ 170202 F51 0.0 0.0 160112 F51 0.0 0.0 170202 F51 0.0 0.0 Ephemeris: 2019 CJ3 a,e,i = 21.64, 0.22, 40 q = 16.8024 Date TT R. A. (2000) Decl. Delta r Elong. Phase V 2019 05 30 09 03 41.0 +13 58 10 17.5995 17.2159 66.2 3.1 21.5 ... 2019 06 14 09 06 11.6 +13 57 58 17.8221 17.2222 52.5 2.7 21.5 ... 2019 06 22 09 07 46.4 +13 56 31 17.9265 17.2256 45.2 2.4 21.5 ... 2019 06 28 09 09 03.2 +13 54 52 17.9969 17.2281 39.8 2.2 21.5 2019 06 29 09 09 16.5 +13 54 33 18.0079 17.2286 38.9 2.1 21.5 2019 06 30 09 09 29.8 +13 54 13 18.0188 17.2290 38.0 2.1 21.5 ... 2019 07 06 09 10 52.3 +13 51 59 18.0792 17.2316 32.6 1.8 21.5 ... 2019 07 14 09 12 47.6 +13 48 24 18.1472 17.2350 25.5 1.5 21.5 ... 2019 07 29 09 16 35.6 +13 40 13 18.2328 17.2415 12.2 0.7 21.4 A. U. Tomatic (C) Copyright 2019 MPC M.P.E.C. 2019-M105
